Year,Month,Day,Hour,Minute,Value (Times are PST for windgust in km/hr)
2019,09,27,00,00,3.20
2019,09,27,00,01,4.80
2019,09,27,00,02,4.80
2019,09,27,00,03,4.80
2019,09,27,00,04,4.80
2019,09,27,00,05,6.40
2019,09,27,00,06,6.40
2019,09,27,00,07,4.80
2019,09,27,00,08,4.80
2019,09,27,00,09,4.80
2019,09,27,00,10,3.20
2019,09,27,00,11,4.80
2019,09,27,00,12,3.20
2019,09,27,00,13,1.60
2019,09,27,00,14,3.20
2019,09,27,00,15,6.40
2019,09,27,00,16,8.10
2019,09,27,00,17,3.20
2019,09,27,00,18,4.80
2019,09,27,00,19,3.20
2019,09,27,00,20,3.20
2019,09,27,00,21,6.40
2019,09,27,00,22,3.20
2019,09,27,00,23,1.60
2019,09,27,00,24,1.60
2019,09,27,00,26,4.80
2019,09,27,00,27,1.60
2019,09,27,00,28,1.60
2019,09,27,00,29,3.20
2019,09,27,00,30,4.80
2019,09,27,00,31,4.80
2019,09,27,00,32,3.20
2019,09,27,00,33,3.20
2019,09,27,00,34,4.80
2019,09,27,00,35,4.80
2019,09,27,00,36,4.80
2019,09,27,00,37,4.80
2019,09,27,00,38,4.80
2019,09,27,00,39,6.40
2019,09,27,00,40,6.40
2019,09,27,00,41,6.40
2019,09,27,00,42,4.80
2019,09,27,00,43,4.80
2019,09,27,00,44,3.20
2019,09,27,00,45,4.80
2019,09,27,00,46,3.20
2019,09,27,00,47,1.60
2019,09,27,00,48,3.20
2019,09,27,00,49,1.60
2019,09,27,00,50,1.60
2019,09,27,00,51,1.60
2019,09,27,00,52,1.60
2019,09,27,00,54,1.60
2019,09,27,00,55,4.80
2019,09,27,00,56,4.80
2019,09,27,00,57,1.60
2019,09,27,00,58,1.60
2019,09,27,00,59,1.60
2019,09,27,01,00,4.80
2019,09,27,01,01,1.60
2019,09,27,01,02,1.60
2019,09,27,01,03,3.20
2019,09,27,01,04,1.60
2019,09,27,01,06,3.20
2019,09,27,01,45,3.20
2019,09,27,01,46,3.20
2019,09,27,01,47,4.80
2019,09,27,01,48,3.20
2019,09,27,01,49,6.40
2019,09,27,01,50,4.80
2019,09,27,01,51,4.80
2019,09,27,01,52,3.20
2019,09,27,01,53,3.20
2019,09,27,01,54,1.60
2019,09,27,01,55,4.80
2019,09,27,01,56,6.40
2019,09,27,01,57,4.80
2019,09,27,01,58,4.80
2019,09,27,01,59,3.20
2019,09,27,02,00,3.20
2019,09,27,02,01,1.60
2019,09,27,02,09,1.60
2019,09,27,02,46,3.20
2019,09,27,02,47,3.20
2019,09,27,02,48,4.80
2019,09,27,02,49,1.60
2019,09,27,02,50,4.80
2019,09,27,02,51,4.80
2019,09,27,02,52,1.60
2019,09,27,02,53,3.20
2019,09,27,02,54,4.80
2019,09,27,02,55,6.40
2019,09,27,02,56,6.40
2019,09,27,02,57,4.80
2019,09,27,02,58,4.80
2019,09,27,02,59,4.80
2019,09,27,03,00,4.80
2019,09,27,03,01,1.60
2019,09,27,03,02,3.20
2019,09,27,03,03,1.60
2019,09,27,03,04,1.60
2019,09,27,03,05,4.80
2019,09,27,03,06,3.20
2019,09,27,03,07,3.20
2019,09,27,03,08,1.60
2019,09,27,03,09,6.40
2019,09,27,03,10,4.80
2019,09,27,03,11,6.40
2019,09,27,03,12,6.40
2019,09,27,03,13,6.40
2019,09,27,03,14,8.10
2019,09,27,03,15,6.40
2019,09,27,03,16,6.40
2019,09,27,03,17,6.40
2019,09,27,03,18,6.40
2019,09,27,03,19,6.40
2019,09,27,03,20,4.80
2019,09,27,03,21,6.40
2019,09,27,03,22,4.80
2019,09,27,03,23,6.40
2019,09,27,03,24,4.80
2019,09,27,03,25,6.40
2019,09,27,03,26,6.40
2019,09,27,03,27,6.40
2019,09,27,03,28,8.10
2019,09,27,03,29,8.10
2019,09,27,03,30,6.40
2019,09,27,03,31,6.40
2019,09,27,03,32,8.10
2019,09,27,03,33,6.40
2019,09,27,03,34,6.40
2019,09,27,03,35,6.40
2019,09,27,03,36,6.40
2019,09,27,03,37,8.10
2019,09,27,03,38,6.40
2019,09,27,03,39,6.40
2019,09,27,03,40,6.40
2019,09,27,03,41,6.40
2019,09,27,03,42,9.60
2019,09,27,03,43,9.60
2019,09,27,03,44,8.10
2019,09,27,03,45,8.10
2019,09,27,03,46,6.40
2019,09,27,03,47,4.80
2019,09,27,03,48,6.40
2019,09,27,03,49,6.40
2019,09,27,03,50,6.40
2019,09,27,03,51,6.40
2019,09,27,03,52,8.10
2019,09,27,03,53,6.40
2019,09,27,03,54,6.40
2019,09,27,03,55,11.30
2019,09,27,03,56,8.10
2019,09,27,03,57,8.10
2019,09,27,03,58,9.60
2019,09,27,03,59,9.60
2019,09,27,04,00,8.10
2019,09,27,04,01,8.10
2019,09,27,04,02,8.10
2019,09,27,04,03,8.10
2019,09,27,04,04,6.40
2019,09,27,04,05,8.10
2019,09,27,04,06,6.40
2019,09,27,04,07,8.10
2019,09,27,04,08,8.10
2019,09,27,04,09,9.60
2019,09,27,04,10,11.30
2019,09,27,04,11,11.30
2019,09,27,04,12,12.90
2019,09,27,04,13,12.90
2019,09,27,04,14,11.30
2019,09,27,04,15,12.90
2019,09,27,04,16,14.50
2019,09,27,04,17,9.60
2019,09,27,04,18,9.60
2019,09,27,04,19,6.40
2019,09,27,04,20,11.30
2019,09,27,04,21,6.40
2019,09,27,04,22,12.90
2019,09,27,04,23,12.90
2019,09,27,04,24,9.60
2019,09,27,04,25,9.60
2019,09,27,04,26,6.40
2019,09,27,04,27,6.40
2019,09,27,04,28,6.40
2019,09,27,04,29,9.60
2019,09,27,04,30,4.80
2019,09,27,04,31,4.80
2019,09,27,04,32,8.10
2019,09,27,04,33,4.80
2019,09,27,04,34,3.20
2019,09,27,04,35,4.80
2019,09,27,04,36,6.40
2019,09,27,04,37,4.80
2019,09,27,04,38,3.20
2019,09,27,04,39,4.80
2019,09,27,04,40,3.20
2019,09,27,04,41,4.80
2019,09,27,04,42,6.40
2019,09,27,04,43,8.10
2019,09,27,04,44,11.30
2019,09,27,04,45,11.30
2019,09,27,04,46,9.60
2019,09,27,04,47,9.60
2019,09,27,04,48,9.60
2019,09,27,04,49,9.60
2019,09,27,04,50,8.10
2019,09,27,04,51,8.10
2019,09,27,04,52,6.40
2019,09,27,04,53,6.40
2019,09,27,04,54,6.40
2019,09,27,04,55,4.80
2019,09,27,04,56,12.90
2019,09,27,04,57,11.30
2019,09,27,04,58,6.40
2019,09,27,04,59,6.40
2019,09,27,05,00,6.40
2019,09,27,05,01,6.40
2019,09,27,05,02,6.40
2019,09,27,05,03,6.40
2019,09,27,05,04,6.40
2019,09,27,05,05,6.40
2019,09,27,05,06,6.40
2019,09,27,05,07,6.40
2019,09,27,07,57,6.40
2019,09,27,07,58,9.60
2019,09,27,07,59,9.60
2019,09,27,08,00,14.50
2019,09,27,08,01,16.10
2019,09,27,08,02,8.10
2019,09,27,08,03,11.30
2019,09,27,08,04,14.50
2019,09,27,08,05,12.90
2019,09,27,08,06,16.10
2019,09,27,08,07,17.70
2019,09,27,08,08,12.90
2019,09,27,08,09,11.30
2019,09,27,08,10,11.30
2019,09,27,08,11,9.60
2019,09,27,08,12,12.90
2019,09,27,08,13,17.70
2019,09,27,08,14,8.10
2019,09,27,08,15,12.90
2019,09,27,08,16,12.90
2019,09,27,08,17,14.50
2019,09,27,08,18,11.30
2019,09,27,08,19,12.90
2019,09,27,08,20,14.50
2019,09,27,08,21,19.30
2019,09,27,08,22,17.70
2019,09,27,08,23,16.10
2019,09,27,08,24,16.10
2019,09,27,08,25,19.30
2019,09,27,08,26,9.60
2019,09,27,08,27,12.90
2019,09,27,08,28,14.50
2019,09,27,08,29,14.50
2019,09,27,08,30,17.70
2019,09,27,08,31,20.90
2019,09,27,08,32,25.70
2019,09,27,08,33,20.90
2019,09,27,08,34,17.70
2019,09,27,08,35,14.50
2019,09,27,08,36,14.50
2019,09,27,08,37,19.30
2019,09,27,08,38,20.90
2019,09,27,08,39,22.50
2019,09,27,08,40,19.30
2019,09,27,08,41,17.70
2019,09,27,08,42,22.50
2019,09,27,08,43,19.30
2019,09,27,08,44,22.50
2019,09,27,08,45,25.70
2019,09,27,08,46,19.30
2019,09,27,08,47,19.30
2019,09,27,08,48,16.10
2019,09,27,08,49,12.90
2019,09,27,08,50,16.10
2019,09,27,08,51,19.30
2019,09,27,08,52,14.50
2019,09,27,08,53,27.40
2019,09,27,08,54,17.70
2019,09,27,08,55,16.10
2019,09,27,08,56,19.30
2019,09,27,08,57,16.10
2019,09,27,08,58,14.50
2019,09,27,08,59,12.90
2019,09,27,09,00,20.90
2019,09,27,09,01,19.30
2019,09,27,09,02,17.70
2019,09,27,09,03,22.50
2019,09,27,09,04,20.90
2019,09,27,09,05,22.50
2019,09,27,09,06,24.20
2019,09,27,09,07,25.70
2019,09,27,09,08,22.50
2019,09,27,09,09,19.30
2019,09,27,09,10,20.90
2019,09,27,09,11,17.70
2019,09,27,09,12,20.90
2019,09,27,09,13,14.50
2019,09,27,09,14,24.20
2019,09,27,09,15,19.30
2019,09,27,09,16,17.70
2019,09,27,09,17,17.70
2019,09,27,09,18,16.10
2019,09,27,09,19,17.70
2019,09,27,09,20,11.30
2019,09,27,09,21,14.50
2019,09,27,09,22,17.70
2019,09,27,09,23,25.70
2019,09,27,09,24,22.50
2019,09,27,09,25,27.40
2019,09,27,09,26,19.30
2019,09,27,09,27,19.30
2019,09,27,09,28,17.70
2019,09,27,09,29,22.50
2019,09,27,09,30,16.10
2019,09,27,09,31,24.20
2019,09,27,09,32,22.50
2019,09,27,09,33,20.90
2019,09,27,09,34,17.70
2019,09,27,09,35,19.30
2019,09,27,09,36,22.50
2019,09,27,09,37,19.30
2019,09,27,09,38,16.10
2019,09,27,09,39,17.70
2019,09,27,09,40,17.70
2019,09,27,09,41,14.50
2019,09,27,09,42,14.50
2019,09,27,09,43,19.30
2019,09,27,09,44,17.70
2019,09,27,09,45,17.70
2019,09,27,09,46,12.90
2019,09,27,09,47,12.90
2019,09,27,09,48,19.30
2019,09,27,09,49,19.30
2019,09,27,09,50,16.10
2019,09,27,09,51,14.50
2019,09,27,09,52,16.10
2019,09,27,09,53,12.90
2019,09,27,09,54,19.30
2019,09,27,09,55,14.50
2019,09,27,09,56,17.70
2019,09,27,09,57,17.70
2019,09,27,09,58,12.90
2019,09,27,09,59,16.10
2019,09,27,10,00,11.30
2019,09,27,10,01,19.30
2019,09,27,10,02,19.30
2019,09,27,10,03,17.70
2019,09,27,10,04,12.90
2019,09,27,10,05,11.30
2019,09,27,10,06,19.30
2019,09,27,10,07,19.30
2019,09,27,10,08,19.30
2019,09,27,10,09,16.10
2019,09,27,10,10,16.10
2019,09,27,10,11,19.30
2019,09,27,10,12,14.50
2019,09,27,10,13,14.50
2019,09,27,10,14,14.50
2019,09,27,10,15,17.70
2019,09,27,10,16,19.30
2019,09,27,10,17,17.70
2019,09,27,10,18,20.90
2019,09,27,10,19,14.50
2019,09,27,10,20,16.10
2019,09,27,10,21,16.10
2019,09,27,10,22,14.50
2019,09,27,10,23,9.60
2019,09,27,10,24,9.60
2019,09,27,10,25,16.10
2019,09,27,10,26,19.30
2019,09,27,10,27,16.10
2019,09,27,10,28,14.50
2019,09,27,10,29,16.10
2019,09,27,10,30,12.90
2019,09,27,10,31,14.50
2019,09,27,10,32,9.60
2019,09,27,10,33,8.10
2019,09,27,10,34,12.90
2019,09,27,10,35,6.40
2019,09,27,10,36,8.10
2019,09,27,10,37,8.10
2019,09,27,10,38,3.20
2019,09,27,10,39,4.80
2019,09,27,10,40,6.40
2019,09,27,10,41,3.20
2019,09,27,10,42,3.20
2019,09,27,10,45,1.60
2019,09,27,10,46,1.60
2019,09,27,10,47,1.60
2019,09,27,10,48,1.60
2019,09,27,10,49,1.60
2019,09,27,10,50,3.20
2019,09,27,10,51,4.80
2019,09,27,10,52,6.40
2019,09,27,10,53,9.60
2019,09,27,10,54,8.10
2019,09,27,10,55,8.10
2019,09,27,10,56,8.10
2019,09,27,10,57,8.10
2019,09,27,10,58,12.90
2019,09,27,10,59,9.60
2019,09,27,11,00,6.40
2019,09,27,11,01,4.80
2019,09,27,11,02,8.10
2019,09,27,11,03,12.90
2019,09,27,11,04,12.90
2019,09,27,11,05,8.10
2019,09,27,11,06,6.40
2019,09,27,11,07,6.40
2019,09,27,11,08,8.10
2019,09,27,11,09,3.20
2019,09,27,11,11,1.60
2019,09,27,11,12,3.20
2019,09,27,11,13,4.80
2019,09,27,11,14,6.40
2019,09,27,11,15,3.20
2019,09,27,11,16,3.20
2019,09,27,11,17,1.60
2019,09,27,11,18,1.60
2019,09,27,11,19,3.20
2019,09,27,11,20,6.40
2019,09,27,11,21,6.40
2019,09,27,11,22,6.40
2019,09,27,11,23,9.60
2019,09,27,11,24,9.60
2019,09,27,11,25,6.40
2019,09,27,11,26,4.80
2019,09,27,11,27,3.20
2019,09,27,11,28,1.60
2019,09,27,11,29,11.30
2019,09,27,11,30,12.90
2019,09,27,11,31,9.60
2019,09,27,11,32,9.60
2019,09,27,11,33,12.90
2019,09,27,11,34,19.30
2019,09,27,11,35,19.30
2019,09,27,11,36,22.50
2019,09,27,11,37,24.20
2019,09,27,11,38,20.90
2019,09,27,11,39,20.90
2019,09,27,11,40,16.10
2019,09,27,11,41,16.10
2019,09,27,11,42,9.60
2019,09,27,11,43,25.70
2019,09,27,11,44,22.50
2019,09,27,11,45,19.30
2019,09,27,11,46,14.50
2019,09,27,11,47,11.30
2019,09,27,11,48,12.90
2019,09,27,11,49,20.90
2019,09,27,11,50,19.30
2019,09,27,11,51,17.70
2019,09,27,11,52,24.20
2019,09,27,11,53,20.90
2019,09,27,11,54,11.30
2019,09,27,11,55,16.10
2019,09,27,11,56,22.50
2019,09,27,11,57,19.30
2019,09,27,11,58,12.90
2019,09,27,11,59,19.30
2019,09,27,12,00,22.50
2019,09,27,12,01,24.20
2019,09,27,12,02,25.70
2019,09,27,12,03,24.20
2019,09,27,12,04,27.40
2019,09,27,12,05,19.30
2019,09,27,12,06,17.70
2019,09,27,12,07,20.90
2019,09,27,12,08,19.30
2019,09,27,12,09,17.70
2019,09,27,12,10,14.50
2019,09,27,12,11,22.50
2019,09,27,12,12,16.10
2019,09,27,12,13,20.90
2019,09,27,12,14,25.70
2019,09,27,12,15,24.20
2019,09,27,12,16,24.20
2019,09,27,12,17,24.20
2019,09,27,12,18,29.00
2019,09,27,12,19,24.20
2019,09,27,12,20,29.00
2019,09,27,12,21,32.20
2019,09,27,12,22,35.40
2019,09,27,12,23,35.40
2019,09,27,12,24,29.00
2019,09,27,12,25,22.50
2019,09,27,12,26,32.20
2019,09,27,12,27,32.20
2019,09,27,12,28,24.20
2019,09,27,12,29,29.00
2019,09,27,12,30,30.60
2019,09,27,12,31,27.40
2019,09,27,12,32,29.00
2019,09,27,12,33,24.20
2019,09,27,12,34,38.60
2019,09,27,12,35,40.20
2019,09,27,12,36,32.20
2019,09,27,12,37,32.20
2019,09,27,12,38,32.20
2019,09,27,12,39,30.60
2019,09,27,12,40,29.00
2019,09,27,12,41,25.70
2019,09,27,12,42,29.00
2019,09,27,12,43,32.20
2019,09,27,12,44,32.20
2019,09,27,12,45,25.70
2019,09,27,12,46,27.40
2019,09,27,12,47,37.00
2019,09,27,12,48,40.20
2019,09,27,12,49,30.60
2019,09,27,12,50,24.20
2019,09,27,12,51,25.70
2019,09,27,12,52,33.80
2019,09,27,12,53,37.00
2019,09,27,12,54,32.20
2019,09,27,12,55,22.50
2019,09,27,12,56,45.10
2019,09,27,12,57,35.40
2019,09,27,12,58,32.20
2019,09,27,12,59,20.90
2019,09,27,13,00,30.60
2019,09,27,13,01,25.70
2019,09,27,13,02,20.90
2019,09,27,13,03,27.40
2019,09,27,13,04,20.90
2019,09,27,13,05,30.60
2019,09,27,13,06,33.80
2019,09,27,13,07,30.60
2019,09,27,13,08,30.60
2019,09,27,13,09,29.00
2019,09,27,13,10,35.40
2019,09,27,13,11,27.40
2019,09,27,13,12,25.70
2019,09,27,13,13,20.90
2019,09,27,13,14,17.70
2019,09,27,13,15,22.50
2019,09,27,13,16,22.50
2019,09,27,13,17,29.00
2019,09,27,13,18,22.50
2019,09,27,13,19,25.70
2019,09,27,13,20,24.20
2019,09,27,13,21,22.50
2019,09,27,13,22,27.40
2019,09,27,13,23,33.80
2019,09,27,13,24,37.00
2019,09,27,13,25,33.80
2019,09,27,13,26,40.20
2019,09,27,13,27,38.60
2019,09,27,13,28,33.80
2019,09,27,13,29,25.70
2019,09,27,13,30,24.20
2019,09,27,13,31,25.70
2019,09,27,13,32,25.70
2019,09,27,13,33,24.20
2019,09,27,13,34,29.00
2019,09,27,13,35,19.30
2019,09,27,13,36,37.00
2019,09,27,13,37,24.20
2019,09,27,13,38,25.70
2019,09,27,13,39,22.50
2019,09,27,13,40,19.30
2019,09,27,13,41,22.50
2019,09,27,13,42,29.00
2019,09,27,13,43,14.50
2019,09,27,13,44,20.90
2019,09,27,13,45,22.50
2019,09,27,13,46,25.70
2019,09,27,13,47,24.20
2019,09,27,13,48,24.20
2019,09,27,13,49,30.60
2019,09,27,13,50,22.50
2019,09,27,13,51,25.70
2019,09,27,13,52,22.50
2019,09,27,13,53,32.20
2019,09,27,13,54,30.60
2019,09,27,13,55,35.40
2019,09,27,13,56,32.20
2019,09,27,13,57,35.40
2019,09,27,13,58,32.20
2019,09,27,13,59,33.80
2019,09,27,14,00,30.60
2019,09,27,14,01,22.50
2019,09,27,14,02,30.60
2019,09,27,14,03,30.60
2019,09,27,14,04,53.10
2019,09,27,14,05,37.00
2019,09,27,14,06,49.90
2019,09,27,14,07,46.70
2019,09,27,14,08,38.60
2019,09,27,14,09,29.00
2019,09,27,14,10,25.70
2019,09,27,14,11,33.80
2019,09,27,14,12,38.60
2019,09,27,14,13,38.60
2019,09,27,14,14,38.60
2019,09,27,14,15,30.60
2019,09,27,14,16,32.20
2019,09,27,14,17,25.70
2019,09,27,14,18,49.90
2019,09,27,14,19,32.20
2019,09,27,14,20,38.60
2019,09,27,14,21,27.40
2019,09,27,14,22,32.20
2019,09,27,14,23,38.60
2019,09,27,14,24,32.20
2019,09,27,14,25,35.40
2019,09,27,14,26,29.00
2019,09,27,14,27,35.40
2019,09,27,14,28,24.20
2019,09,27,14,29,22.50
2019,09,27,14,30,25.70
2019,09,27,14,31,25.70
2019,09,27,14,32,17.70
2019,09,27,14,33,35.40
2019,09,27,14,34,29.00
2019,09,27,14,35,35.40
2019,09,27,14,36,41.80
2019,09,27,14,37,35.40
2019,09,27,14,38,38.60
2019,09,27,14,39,40.20
2019,09,27,14,40,25.70
2019,09,27,14,41,33.80
2019,09,27,14,42,35.40
2019,09,27,14,43,27.40
2019,09,27,14,44,38.60
2019,09,27,14,45,30.60
2019,09,27,14,46,38.60
2019,09,27,14,47,24.20
2019,09,27,14,48,29.00
2019,09,27,14,49,40.20
2019,09,27,14,50,37.00
2019,09,27,14,51,30.60
2019,09,27,14,52,37.00
2019,09,27,14,53,40.20
2019,09,27,14,54,33.80
2019,09,27,14,55,35.40
2019,09,27,14,56,40.20
2019,09,27,14,57,48.30
2019,09,27,14,58,33.80
2019,09,27,14,59,51.50
2019,09,27,15,00,35.40
2019,09,27,15,01,24.20
2019,09,27,15,02,33.80
2019,09,27,15,03,40.20
2019,09,27,15,04,43.50
2019,09,27,15,05,32.20
2019,09,27,15,06,20.90
2019,09,27,15,07,22.50
2019,09,27,15,08,24.20
2019,09,27,15,09,19.30
2019,09,27,15,10,16.10
2019,09,27,15,11,12.90
2019,09,27,15,12,17.70
2019,09,27,15,13,16.10
2019,09,27,15,14,12.90
2019,09,27,15,15,19.30
2019,09,27,15,16,20.90
2019,09,27,15,17,19.30
2019,09,27,15,18,17.70
2019,09,27,15,19,14.50
2019,09,27,15,20,11.30
2019,09,27,15,21,12.90
2019,09,27,15,22,14.50
2019,09,27,15,23,19.30
2019,09,27,15,24,8.10
2019,09,27,15,25,24.20
2019,09,27,15,26,20.90
2019,09,27,15,27,20.90
2019,09,27,15,28,22.50
2019,09,27,15,29,16.10
2019,09,27,15,30,17.70
2019,09,27,15,31,19.30
2019,09,27,15,32,20.90
2019,09,27,15,33,25.70
2019,09,27,15,34,20.90
2019,09,27,15,35,22.50
2019,09,27,15,36,22.50
2019,09,27,15,37,22.50
2019,09,27,15,38,24.20
2019,09,27,15,39,24.20
2019,09,27,15,40,19.30
2019,09,27,15,41,20.90
2019,09,27,15,42,19.30
2019,09,27,15,43,20.90
2019,09,27,15,44,32.20
2019,09,27,15,45,29.00
2019,09,27,15,46,22.50
2019,09,27,15,47,9.60
2019,09,27,15,48,12.90
2019,09,27,15,49,14.50
2019,09,27,15,50,12.90
2019,09,27,15,51,14.50
2019,09,27,15,52,12.90
2019,09,27,15,53,19.30
2019,09,27,15,54,25.70
2019,09,27,15,55,16.10
2019,09,27,15,56,14.50
2019,09,27,15,57,17.70
2019,09,27,15,58,17.70
2019,09,27,15,59,17.70
2019,09,27,16,00,12.90
2019,09,27,16,01,16.10
2019,09,27,16,02,12.90
2019,09,27,16,03,14.50
2019,09,27,16,04,16.10
2019,09,27,16,05,16.10
2019,09,27,16,06,12.90
2019,09,27,16,07,12.90
2019,09,27,16,08,4.80
2019,09,27,16,09,6.40
2019,09,27,16,10,3.20
2019,09,27,16,11,4.80
2019,09,27,16,12,1.60
2019,09,27,16,13,4.80
2019,09,27,16,14,8.10
2019,09,27,16,15,6.40
2019,09,27,16,16,6.40
2019,09,27,16,17,12.90
2019,09,27,16,18,9.60
2019,09,27,16,19,3.20
2019,09,27,16,20,6.40
2019,09,27,16,21,8.10
2019,09,27,16,22,6.40
2019,09,27,16,23,4.80
2019,09,27,16,25,3.20
2019,09,27,16,26,3.20
2019,09,27,16,27,3.20
2019,09,27,16,28,4.80
2019,09,27,16,29,6.40
2019,09,27,16,30,3.20
2019,09,27,16,31,3.20
2019,09,27,16,32,3.20
2019,09,27,16,33,1.60
2019,09,27,16,34,4.80
2019,09,27,16,35,3.20
2019,09,27,16,36,3.20
2019,09,27,16,37,1.60
2019,09,27,16,39,3.20
2019,09,27,16,40,4.80
2019,09,27,16,41,3.20
2019,09,27,16,42,3.20
2019,09,27,16,43,6.40
2019,09,27,16,44,6.40
2019,09,27,16,45,6.40
2019,09,27,16,46,8.10
2019,09,27,16,47,8.10
2019,09,27,16,48,14.50
2019,09,27,16,49,14.50
2019,09,27,16,50,9.60
2019,09,27,16,51,9.60
2019,09,27,16,52,8.10
2019,09,27,16,53,6.40
2019,09,27,16,54,6.40
2019,09,27,16,55,4.80
2019,09,27,16,56,6.40
2019,09,27,16,57,6.40
2019,09,27,16,58,4.80
2019,09,27,16,59,4.80
2019,09,27,17,00,4.80
2019,09,27,17,01,1.60
2019,09,27,17,02,6.40
2019,09,27,17,03,6.40
2019,09,27,17,04,8.10
2019,09,27,17,05,3.20
2019,09,27,17,06,1.60
2019,09,27,17,07,4.80
2019,09,27,17,08,4.80
2019,09,27,17,09,4.80
2019,09,27,17,10,3.20
2019,09,27,17,11,4.80
2019,09,27,17,12,4.80
2019,09,27,17,13,4.80
2019,09,27,17,14,6.40
2019,09,27,17,15,6.40
2019,09,27,17,16,4.80
2019,09,27,17,17,6.40
2019,09,27,17,18,6.40
2019,09,27,17,19,6.40
2019,09,27,17,20,8.10
2019,09,27,17,21,8.10
2019,09,27,17,22,9.60
2019,09,27,17,23,9.60
2019,09,27,17,24,9.60
2019,09,27,17,25,6.40
2019,09,27,17,26,8.10
2019,09,27,17,27,6.40
2019,09,27,17,28,6.40
2019,09,27,17,29,8.10
2019,09,27,17,30,8.10
2019,09,27,17,31,8.10
2019,09,27,17,32,6.40
2019,09,27,17,33,6.40
2019,09,27,17,34,6.40
2019,09,27,17,35,6.40
2019,09,27,17,36,4.80
2019,09,27,17,37,4.80
2019,09,27,17,38,6.40
2019,09,27,17,39,6.40
2019,09,27,17,40,6.40
2019,09,27,17,41,6.40
2019,09,27,17,42,6.40
2019,09,27,17,43,4.80
2019,09,27,17,44,8.10
2019,09,27,17,45,6.40
2019,09,27,17,46,9.60
2019,09,27,17,47,8.10
2019,09,27,17,48,9.60
2019,09,27,17,49,9.60
2019,09,27,17,50,12.90
2019,09,27,17,51,9.60
2019,09,27,17,52,9.60
2019,09,27,17,53,9.60
2019,09,27,17,54,12.90
2019,09,27,17,55,11.30
2019,09,27,17,56,6.40
2019,09,27,17,57,9.60
2019,09,27,17,58,9.60
2019,09,27,17,59,12.90
2019,09,27,18,00,12.90
2019,09,27,18,01,12.90
2019,09,27,18,02,14.50
2019,09,27,18,03,12.90
2019,09,27,18,04,12.90
2019,09,27,18,05,12.90
2019,09,27,18,06,14.50
2019,09,27,18,07,12.90
2019,09,27,18,08,12.90
2019,09,27,18,09,12.90
2019,09,27,18,10,14.50
2019,09,27,18,11,14.50
2019,09,27,18,12,16.10
2019,09,27,18,13,16.10
2019,09,27,18,14,16.10
2019,09,27,18,15,16.10
2019,09,27,18,16,16.10
2019,09,27,18,17,14.50
2019,09,27,18,18,12.90
2019,09,27,18,19,14.50
2019,09,27,18,20,14.50
2019,09,27,18,21,20.90
2019,09,27,18,22,17.70
2019,09,27,18,23,12.90
2019,09,27,18,24,16.10
2019,09,27,18,25,16.10
2019,09,27,18,26,14.50
2019,09,27,18,27,16.10
2019,09,27,18,28,12.90
2019,09,27,18,29,9.60
2019,09,27,18,30,9.60
2019,09,27,18,31,9.60
2019,09,27,18,32,9.60
2019,09,27,18,33,9.60
2019,09,27,18,34,8.10
2019,09,27,18,35,9.60
2019,09,27,18,36,9.60
2019,09,27,18,37,9.60
2019,09,27,18,38,9.60
2019,09,27,18,39,14.50
2019,09,27,18,40,14.50
2019,09,27,18,41,16.10
2019,09,27,18,42,14.50
2019,09,27,18,43,12.90
2019,09,27,18,44,14.50
2019,09,27,18,45,16.10
2019,09,27,18,46,16.10
2019,09,27,18,47,14.50
2019,09,27,18,48,16.10
2019,09,27,18,49,12.90
2019,09,27,18,50,12.90
2019,09,27,18,51,12.90
2019,09,27,18,52,12.90
2019,09,27,18,53,14.50
2019,09,27,18,54,14.50
2019,09,27,18,55,12.90
2019,09,27,18,56,16.10
2019,09,27,18,57,16.10
2019,09,27,18,58,14.50
2019,09,27,18,59,12.90
2019,09,27,19,00,12.90
2019,09,27,19,01,12.90
2019,09,27,19,02,12.90
2019,09,27,19,03,8.10
2019,09,27,19,04,9.60
2019,09,27,19,05,9.60
2019,09,27,19,06,9.60
2019,09,27,19,07,9.60
2019,09,27,19,08,6.40
2019,09,27,19,09,6.40
2019,09,27,19,10,6.40
2019,09,27,19,11,6.40
2019,09,27,19,12,6.40
2019,09,27,19,13,6.40
2019,09,27,19,14,8.10
2019,09,27,19,15,8.10
2019,09,27,19,16,8.10
2019,09,27,19,17,8.10
2019,09,27,19,18,8.10
2019,09,27,19,19,8.10
2019,09,27,19,20,6.40
2019,09,27,19,21,4.80
2019,09,27,19,22,4.80
2019,09,27,19,23,6.40
2019,09,27,19,24,4.80
2019,09,27,19,25,6.40
2019,09,27,19,26,6.40
2019,09,27,19,27,4.80
2019,09,27,19,28,4.80
2019,09,27,19,29,6.40
2019,09,27,19,30,6.40
2019,09,27,19,31,6.40
2019,09,27,19,32,4.80
2019,09,27,19,33,6.40
2019,09,27,19,34,6.40
2019,09,27,19,35,6.40
2019,09,27,19,36,1.60
2019,09,27,19,37,3.20
2019,09,27,19,38,3.20
2019,09,27,19,39,4.80
2019,09,27,19,40,3.20
2019,09,27,19,41,1.60
2019,09,27,19,42,1.60
2019,09,27,19,43,1.60
2019,09,27,19,44,4.80
2019,09,27,19,45,3.20
2019,09,27,19,46,3.20
2019,09,27,19,47,4.80
2019,09,27,19,48,3.20
2019,09,27,19,49,1.60
2019,09,27,19,50,1.60
2019,09,27,19,51,3.20
2019,09,27,19,52,4.80
2019,09,27,19,53,6.40
2019,09,27,19,54,6.40
2019,09,27,19,55,8.10
2019,09,27,19,56,8.10
2019,09,27,19,57,8.10
2019,09,27,19,58,6.40
2019,09,27,19,59,6.40
2019,09,27,20,00,6.40
2019,09,27,20,01,6.40
2019,09,27,20,02,8.10
2019,09,27,20,03,6.40
2019,09,27,20,04,8.10
2019,09,27,20,05,8.10
2019,09,27,20,06,8.10
2019,09,27,20,07,8.10
2019,09,27,20,08,9.60
2019,09,27,20,09,8.10
2019,09,27,20,10,12.90
2019,09,27,20,11,12.90
2019,09,27,20,12,12.90
2019,09,27,20,13,8.10
2019,09,27,20,14,9.60
2019,09,27,20,15,14.50
2019,09,27,20,16,14.50
2019,09,27,20,17,14.50
2019,09,27,20,18,14.50
2019,09,27,20,19,12.90
2019,09,27,20,20,9.60
2019,09,27,20,21,8.10
2019,09,27,20,22,14.50
2019,09,27,20,23,12.90
2019,09,27,20,24,9.60
2019,09,27,20,25,14.50
2019,09,27,20,26,12.90
2019,09,27,20,27,12.90
2019,09,27,20,28,12.90
2019,09,27,20,29,14.50
2019,09,27,20,30,12.90
2019,09,27,20,31,12.90
2019,09,27,20,32,9.60
2019,09,27,20,33,8.10
2019,09,27,20,34,8.10
2019,09,27,20,35,8.10
2019,09,27,20,36,14.50
2019,09,27,20,37,8.10
2019,09,27,20,38,12.90
2019,09,27,20,39,16.10
2019,09,27,20,40,12.90
2019,09,27,20,41,12.90
2019,09,27,20,42,12.90
2019,09,27,20,43,12.90
2019,09,27,20,44,12.90
2019,09,27,20,45,9.60
2019,09,27,20,46,8.10
2019,09,27,20,47,12.90
2019,09,27,20,48,14.50
2019,09,27,20,49,9.60
2019,09,27,20,50,8.10
2019,09,27,20,51,8.10
2019,09,27,20,52,8.10
2019,09,27,20,53,6.40
2019,09,27,20,54,9.60
2019,09,27,20,55,9.60
2019,09,27,20,56,11.30
2019,09,27,20,57,11.30
2019,09,27,20,58,6.40
2019,09,27,20,59,8.10
2019,09,27,21,00,6.40
2019,09,27,21,01,9.60
2019,09,27,21,02,6.40
2019,09,27,21,03,8.10
2019,09,27,21,04,6.40
2019,09,27,21,05,6.40
2019,09,27,21,06,6.40
2019,09,27,21,07,9.60
2019,09,27,21,08,9.60
2019,09,27,21,09,11.30
2019,09,27,21,10,8.10
2019,09,27,21,11,8.10
2019,09,27,21,12,6.40
2019,09,27,21,13,4.80
2019,09,27,21,14,6.40
2019,09,27,21,15,6.40
2019,09,27,21,16,6.40
2019,09,27,21,17,4.80
2019,09,27,21,18,8.10
2019,09,27,21,19,8.10
2019,09,27,21,20,6.40
2019,09,27,21,21,4.80
2019,09,27,21,22,6.40
2019,09,27,21,23,4.80
2019,09,27,21,24,4.80
2019,09,27,21,25,4.80
2019,09,27,21,26,3.20
2019,09,27,21,27,4.80
2019,09,27,21,28,4.80
2019,09,27,21,29,6.40
2019,09,27,21,30,6.40
2019,09,27,21,31,9.60
2019,09,27,21,32,9.60
2019,09,27,21,33,8.10
2019,09,27,21,34,6.40
2019,09,27,21,35,4.80
2019,09,27,21,36,11.30
2019,09,27,21,37,8.10
2019,09,27,21,38,4.80
2019,09,27,21,39,4.80
2019,09,27,21,40,6.40
2019,09,27,21,41,6.40
2019,09,27,21,42,6.40
2019,09,27,21,43,8.10
2019,09,27,21,44,8.10
2019,09,27,21,45,8.10
2019,09,27,21,46,8.10
2019,09,27,21,47,9.60
2019,09,27,21,48,8.10
2019,09,27,21,49,6.40
2019,09,27,21,50,6.40
2019,09,27,21,51,8.10
2019,09,27,21,52,6.40
2019,09,27,21,53,6.40
2019,09,27,21,54,6.40
2019,09,27,21,55,9.60
2019,09,27,21,56,8.10
2019,09,27,21,57,6.40
2019,09,27,21,58,8.10
2019,09,27,21,59,8.10
2019,09,27,22,00,9.60